Vorticity
10 9 10 11 13 15 16 16 18 19 19 21 23 26 26 24 24 26 28 30 31 32 34 35 36 37 39 39 40 41 43 46 45 41 36 30 26 22 18 13 8 5 4 7 10 9 6 5 5 6 6 5 6 5 5 5 4 3 7 7 -2 -7 -2
9 9 8 9 12 14 13 11 10 10 9 11 15 16 14 12 14 17 19 18 19 20 22 24 27 29 32 34 37 39 40 41 44 45 45 42 38 32 28 24 20 15 9 7 8 9 8 7 5 5 6 6 6 6 6 6 8 6 3 4 3 -0 1
10 9 8 6 8 11 13 11 8 6 6 9 12 12 10 10 11 12 11 10 11 12 12 14 17 19 21 24 29 32 34 37 39 41 43 45 45 42 38 33 30 28 22 15 11 10 9 8 6 4 6 7 6 6 7 6 6 7 5 1 2 5 5
13 10 10 9 7 8 11 13 11 7 6 8 11 13 12 10 9 9 9 10 10 10 10 10 11 13 14 16 20 23 26 32 36 39 41 42 45 47 46 42 38 37 34 29 22 17 12 11 9 5 4 7 8 6 6 6 5 5 6 1 -2 -1 -1
17 12 11 11 10 9 10 14 14 9 6 9 13 15 14 12 12 14 15 14 12 13 13 11 10 10 11 12 14 17 20 23 28 31 35 37 39 43 46 46 44 43 42 39 34 27 21 17 15 11 5 4 7 7 5 6 6 5 7 4 -1 0 0
20 18 13 9 11 14 13 14 15 9 5 8 13 14 12 12 13 15 15 14 14 15 16 14 12 10 10 12 13 13 14 16 19 22 26 30 31 34 37 39 41 43 43 41 40 37 30 23 21 19 14 8 7 9 8 6 6 5 7 7 1 3 7
21 22 20 16 14 17 16 14 13 8 6 10 14 13 11 10 10 10 11 12 13 14 14 14 14 12 11 12 12 13 13 11 13 16 20 24 26 27 30 33 35 38 40 39 39 41 39 31 26 25 24 18 12 10 9 7 7 6 5 7 4 1 8
26 26 26 22 18 17 16 13 10 7 7 11 12 10 9 8 8 8 9 11 13 14 13 13 13 13 12 12 12 13 12 11 13 15 18 22 23 23 25 29 32 34 37 38 36 38 41 38 32 29 28 24 20 17 13 7 6 7 5 7 8 -1 -4
22 22 21 19 17 15 13 11 9 8 9 11 10 8 7 7 7 8 9 10 12 15 15 15 15 13 12 12 12 11 11 12 14 16 17 19 19 20 21 23 27 29 33 36 37 36 39 39 35 32 30 26 23 23 21 14 10 9 7 5 10 7 -7
16 16 15 14 14 13 12 10 8 8 9 9 8 7 7 6 7 7 8 9 12 14 15 16 17 15 13 12 11 10 11 12 14 15 16 16 16 18 19 19 21 25 27 32 35 36 39 41 38 36 34 30 27 26 26 25 18 11 11 8 5 11 7
15 15 15 14 13 12 10 9 8 8 8 8 7 7 7 7 7 7 8 10 12 14 15 16 17 15 13 13 12 11 11 12 12 12 11 12 13 12 13 14 15 20 23 27 31 32 35 39 39 39 35 28 27 29 27 28 25 16 14 15 7 5 11
13 12 12 12 11 10 9 8 8 8 7 7 7 7 6 6 7 7 8 10 11 13 15 17 18 16 14 13 14 13 12 12 11 11 9 10 10 8 8 9 9 13 17 22 26 28 30 34 38 41 37 23 17 25 29 28 32 29 18 16 16 9 6
12 12 11 10 9 9 8 8 8 7 7 6 6 6 7 7 7 7 8 10 11 13 15 18 19 17 13 12 13 13 14 14 13 12 10 9 8 8 8 9 9 11 14 17 21 25 26 30 34 39 44 33 13 10 21 24 25 32 31 22 17 17 13
15 14 14 13 13 12 11 10 9 9 8 9 8 7 7 7 7 7 7 9 11 12 15 18 19 18 13 11 13 15 16 16 14 12 11 9 10 12 13 15 15 15 14 14 18 23 26 30 32 34 42 46 26 3 6 17 14 16 30 35 26 20 18
20 20 19 18 17 16 16 15 14 13 11 11 10 9 8 7 6 6 7 8 11 13 15 17 19 18 14 11 13 14 14 14 14 14 14 13 13 14 15 16 16 16 15 14 14 19 23 27 32 33 34 44 46 21 -0 6 17 12 9 20 32 31 21
16 19 21 23 22 21 19 18 17 17 16 15 13 11 10 8 7 7 8 9 12 13 14 16 19 19 14 11 11 11 11 11 11 11 12 12 12 13 13 13 12 11 13 14 13 15 17 19 26 33 33 35 48 47 19 -1 7 18 10 3 10 24 31
7 10 13 17 22 24 25 23 21 19 18 18 18 17 17 16 14 15 15 14 15 15 13 14 18 19 15 11 9 9 8 8 9 9 10 10 10 11 11 11 10 9 8 10 12 14 17 17 18 25 33 34 38 51 50 22 -1 3 15 15 7 4 15
6 7 8 12 17 20 22 23 25 26 24 21 19 18 18 20 20 20 21 18 16 16 14 12 15 19 18 14 10 8 7 7 9 10 10 10 9 10 11 11 9 7 6 6 10 14 18 20 18 16 22 31 32 39 53 51 26 5 2 10 15 11 6
14 9 7 11 15 14 14 15 17 22 26 27 25 20 16 17 18 19 21 21 18 15 13 11 12 14 17 17 14 10 7 7 9 11 11 10 9 12 15 14 9 7 6 5 6 11 16 19 20 16 12 17 24 27 35 48 50 37 21 7 3 7 9
22 15 8 10 12 11 13 15 14 14 17 22 29 29 20 14 16 17 18 21 21 19 16 14 12 12 14 16 17 15 12 9 9 9 9 8 11 13 12 11 11 10 8 5 3 5 9 12 14 17 15 13 15 19 23 29 37 43 46 39 23 11 9
25 21 10 7 9 8 9 13 15 15 14 15 26 37 31 17 13 17 18 20 21 22 21 19 17 15 13 14 16 17 16 13 11 9 8 8 10 9 6 7 12 13 12 11 9 6 7 9 8 10 14 16 17 20 22 23 27 29 34 42 44 39 30
23 24 16 8 7 6 6 8 10 12 13 12 18 34 39 26 14 12 14 16 17 19 21 21 21 20 18 16 15 16 16 15 13 11 11 12 11 7 5 7 9 10 11 12 13 12 11 12 12 11 11 13 14 18 21 24 27 29 27 28 33 38 39
14 20 22 19 14 9 6 6 8 10 12 11 10 19 31 33 26 19 15 14 14 14 15 16 17 18 17 15 14 15 15 15 15 14 14 14 13 11 10 9 7 8 10 10 11 12 12 11 11 11 11 11 10 10 13 18 24 29 32 31 29 29 32
9 11 16 19 20 18 13 9 9 11 13 14 12 12 17 23 27 27 26 25 24 22 21 20 19 19 19 17 15 15 14 14 14 14 13 13 13 13 11 11 10 9 10 10 10 11 12 11 11 10 9 10 10 8 6 8 13 20 27 32 34 31 30
6 8 11 12 14 18 19 16 13 13 14 15 15 15 15 15 16 18 19 20 20 21 21 20 21 21 22 22 21 21 21 20 18 16 15 13 12 12 11 11 12 11 11 12 11 11 10 11 10 10 9 8 8 8 7 5 5 10 17 25 32 34 32
1 4 9 10 9 10 14 16 16 15 15 15 14 13 13 12 12 12 12 11 11 11 12 13 14 15 15 16 18 18 19 22 23 24 24 22 19 18 16 14 14 13 12 12 12 11 11 10 10 9 10 9 9 7 7 7 6 5 8 14 23 30 32
1 0 4 8 9 9 9 11 14 15 15 15 13 10 8 7 7 7 7 7 8 8 10 10 10 12 13 13 13 13 13 13 15 17 20 23 24 25 25 24 22 20 18 16 13 11 10 10 11 11 9 9 9 9 7 7 7 7 6 7 12 21 28
3 1 1 4 8 10 10 9 10 11 13 13 11 9 7 6 5 5 5 6 7 8 8 8 7 9 12 13 14 15 14 13 12 11 10 10 12 14 17 19 21 22 22 23 23 21 19 16 13 12 10 9 10 10 10 8 7 7 7 5 5 9 17
4 3 2 3 5 9 12 11 8 8 11 11 9 7 6 6 5 6 6 7 8 9 7 6 7 8 10 12 14 16 16 15 15 15 14 12 10 8 7 7 9 11 13 16 20 23 25 23 20 17 16 15 14 12 11 11 10 9 8 7 6 4 5
6 6 6 6 6 7 12 15 12 7 7 9 9 7 7 6 6 7 7 8 9 9 7 6 6 7 9 11 13 14 16 18 16 16 16 17 17 16 14 10 9 8 6 5 7 10 13 16 19 21 21 20 19 17 15 13 12 11 10 9 8 7 5
13 13 12 12 11 10 15 20 17 9 5 7 8 8 8 7 7 8 9 9 8 7 6 7 8 7 9 12 13 13 15 17 18 17 16 16 16 18 18 17 17 17 15 11 9 8 7 8 10 13 15 17 18 19 20 19 17 14 12 11 9 8 8
18 18 17 16 17 18 21 23 19 12 6 5 6 9 11 10 9 9 9 9 8 7 6 7 8 8 8 11 13 14 14 15 16 16 16 17 17 16 16 15 15 16 18 18 18 17 14 11 10 10 10 11 12 13 15 17 19 19 17 15 14 11 9
15 15 15 16 20 23 23 22 20 16 10 6 5 6 8 10 10 10 11 12 11 10 8 8 9 9 8 8 9 11 13 15 15 15 15 16 18 19 19 18 14 11 10 10 13 16 18 19 18 16 12 11 10 10 10 10 12 15 17 17 18 17 15
11 12 15 19 21 21 18 18 19 17 12 10 8 4 3 7 8 9 12 15 14 11 9 8 9 9 8 7 7 8 11 14 16 15 14 13 13 15 19 22 20 17 14 11 8 6 9 15 21 23 20 16 12 10 10 10 10 10 12 14 16 16 18
11 12 16 19 18 15 13 15 18 17 13 12 12 7 3 4 5 6 9 13 16 15 11 10 10 9 7 7 7 7 9 13 14 15 15 15 13 11 12 16 20 21 21 21 17 10 6 7 13 20 24 23 19 15 11 10 10 10 9 10 10 10 11
12 15 19 16 11 10 12 14 16 15 12 12 13 11 7 5 4 4 5 9 14 16 13 10 9 7 7 7 8 7 8 9 10 11 13 15 15 14 12 13 15 18 21 23 21 19 17 13 11 17 24 26 24 23 20 16 13 11 8 7 6 7 9
Height
5277 5277 5277 5278 5279 5281 5283 5285 5287 5289 5291 5294 5297 5300 5303 5305 5308 5310 5313 5315 5316 5318 5320 5323 5325 5328 5330 5332 5334 5338 5342 5345 5349 5353 5358 5362 5368 5374 5380 5386 5393 5401 5416 5431 5439 5446 5453 5459 5465 5471 5478 5484 5490 5496 5502 5508 5515 5521 5525 5529 5534 5538 5543
5274 5275 5275 5276 5278 5279 5281 5283 5285 5287 5290 5293 5295 5298 5300 5302 5305 5307 5309 5310 5312 5314 5315 5317 5319 5321 5322 5323 5325 5329 5331 5333 5337 5340 5344 5349 5353 5359 5365 5371 5378 5385 5398 5412 5422 5429 5437 5443 5450 5457 5465 5472 5478 5485 5491 5497 5503 5509 5514 5519 5525 5529 5534
5271 5272 5273 5275 5276 5278 5280 5282 5284 5286 5289 5291 5294 5296 5298 5300 5302 5303 5305 5307 5308 5309 5311 5312 5314 5315 5316 5316 5318 5321 5322 5324 5327 5329 5333 5337 5340 5345 5351 5357 5363 5370 5380 5393 5403 5410 5419 5427 5434 5442 5451 5459 5466 5472 5477 5483 5490 5497 5503 5509 5514 5520 5524
5268 5269 5271 5272 5274 5276 5278 5280 5283 5285 5287 5289 5291 5293 5295 5296 5298 5300 5301 5303 5304 5305 5306 5307 5309 5310 5310 5311 5313 5314 5315 5317 5319 5321 5324 5327 5330 5333 5339 5345 5350 5355 5364 5375 5384 5392 5402 5412 5418 5426 5435 5443 5451 5458 5464 5470 5477 5484 5492 5498 5504 5510 5515
5265 5267 5268 5270 5272 5274 5277 5279 5281 5283 5285 5287 5289 5291 5292 5294 5295 5297 5298 5300 5301 5301 5302 5303 5304 5305 5306 5307 5308 5309 5310 5311 5313 5314 5316 5319 5321 5324 5329 5333 5337 5342 5350 5359 5366 5374 5385 5395 5401 5409 5419 5427 5436 5444 5451 5458 5465 5472 5479 5487 5493 5499 5506
5264 5265 5267 5268 5271 5273 5275 5278 5279 5281 5283 5285 5286 5288 5289 5291 5292 5294 5295 5296 5297 5298 5299 5299 5300 5301 5301 5302 5304 5304 5305 5306 5307 5308 5309 5312 5314 5316 5319 5322 5326 5331 5338 5345 5351 5358 5369 5379 5386 5393 5403 5412 5421 5430 5438 5445 5452 5459 5466 5475 5482 5489 5495
5263 5264 5266 5268 5270 5272 5274 5276 5277 5279 5281 5282 5284 5285 5287 5288 5289 5290 5291 5292 5293 5294 5294 5295 5296 5297 5297 5298 5299 5300 5301 5301 5302 5303 5304 5306 5308 5309 5311 5314 5318 5323 5328 5333 5339 5345 5354 5365 5373 5379 5387 5396 5404 5413 5422 5430 5438 5446 5454 5464 5472 5479 5485
5263 5264 5266 5267 5269 5271 5273 5274 5276 5277 5279 5280 5282 5283 5284 5285 5286 5287 5288 5288 5289 5290 5290 5291 5292 5292 5293 5294 5295 5296 5296 5297 5298 5299 5300 5302 5303 5304 5305 5308 5312 5315 5319 5324 5329 5335 5341 5351 5359 5365 5373 5382 5389 5397 5408 5418 5427 5435 5443 5452 5460 5467 5474
5265 5265 5266 5267 5269 5270 5271 5273 5274 5276 5277 5278 5279 5280 5281 5282 5283 5284 5284 5285 5286 5286 5287 5287 5288 5288 5289 5290 5291 5292 5292 5293 5294 5296 5297 5298 5299 5300 5302 5304 5306 5309 5312 5316 5321 5325 5331 5338 5346 5354 5362 5370 5377 5387 5398 5406 5414 5421 5430 5438 5446 5453 5461
5266 5267 5267 5268 5269 5270 5271 5272 5273 5274 5275 5276 5277 5277 5278 5279 5280 5281 5281 5282 5283 5283 5283 5284 5284 5285 5285 5286 5287 5288 5289 5290 5291 5292 5293 5294 5296 5297 5299 5301 5302 5305 5307 5310 5314 5318 5323 5328 5336 5344 5352 5360 5369 5378 5385 5391 5399 5407 5416 5424 5431 5440 5449
5268 5268 5268 5268 5269 5269 5270 5271 5271 5272 5273 5273 5274 5275 5276 5276 5277 5278 5279 5279 5279 5280 5280 5280 5281 5281 5282 5283 5284 5285 5286 5287 5288 5290 5291 5292 5293 5294 5296 5298 5299 5301 5303 5305 5308 5312 5315 5319 5327 5336 5343 5351 5360 5366 5372 5379 5387 5395 5402 5410 5418 5428 5437
5269 5269 5269 5269 5269 5269 5269 5270 5270 5271 5271 5272 5272 5273 5273 5274 5274 5275 5275 5276 5276 5276 5276 5277 5277 5278 5279 5280 5281 5282 5283 5284 5286 5287 5288 5289 5290 5292 5293 5295 5296 5298 5300 5301 5304 5307 5309 5313 5320 5328 5334 5342 5350 5356 5363 5370 5376 5382 5390 5398 5406 5416 5425
5270 5270 5269 5269 5268 5268 5268 5268 5269 5269 5269 5269 5270 5270 5270 5271 5271 5272 5272 5272 5273 5273 5273 5273 5274 5275 5275 5276 5277 5279 5280 5281 5283 5284 5285 5286 5288 5289 5291 5292 5294 5295 5297 5298 5300 5303 5306 5309 5315 5321 5327 5334 5341 5347 5353 5359 5366 5372 5379 5387 5395 5404 5412
5271 5270 5269 5268 5268 5267 5267 5267 5267 5267 5267 5267 5267 5267 5267 5268 5268 5269 5269 5269 5269 5269 5270 5270 5271 5271 5272 5273 5274 5276 5277 5279 5280 5281 5282 5283 5285 5286 5288 5289 5291 5292 5294 5296 5297 5300 5303 5306 5309 5315 5320 5325 5330 5336 5343 5350 5357 5364 5371 5378 5385 5392 5398
5271 5270 5269 5268 5267 5266 5266 5265 5265 5264 5264 5264 5264 5264 5264 5265 5265 5265 5265 5266 5266 5266 5267 5267 5268 5268 5269 5270 5272 5273 5274 5275 5276 5277 5279 5280 5282 5284 5285 5286 5288 5290 5291 5293 5295 5297 5299 5302 5304 5308 5312 5315 5321 5328 5335 5341 5348 5355 5361 5367 5372 5377 5384
5272 5270 5269 5267 5266 5265 5264 5263 5263 5262 5262 5261 5261 5261 5261 5261 5262 5262 5262 5262 5262 5263 5263 5264 5265 5266 5266 5268 5269 5271 5271 5272 5273 5274 5276 5278 5279 5280 5282 5283 5285 5287 5288 5290 5292 5294 5296 5298 5300 5302 5305 5309 5314 5320 5326 5332 5338 5345 5350 5356 5363 5368 5375
5272 5271 5269 5267 5266 5264 5263 5261 5261 5260 5259 5258 5258 5258 5258 5258 5258 5258 5258 5258 5259 5259 5260 5261 5262 5263 5263 5265 5266 5267 5268 5269 5270 5271 5273 5274 5276 5277 5278 5281 5282 5283 5285 5287 5289 5291 5292 5294 5296 5298 5301 5304 5308 5313 5318 5324 5330 5337 5343 5349 5355 5362 5369
5273 5271 5269 5267 5265 5264 5262 5260 5259 5258 5257 5256 5255 5255 5254 5254 5254 5254 5255 5255 5255 5256 5257 5258 5259 5260 5261 5262 5263 5264 5265 5266 5267 5269 5270 5272 5273 5274 5276 5278 5279 5280 5282 5284 5285 5287 5289 5291 5293 5295 5298 5300 5303 5307 5311 5317 5324 5330 5334 5340 5346 5353 5359
5273 5271 5269 5267 5265 5263 5262 5260 5258 5257 5255 5254 5252 5252 5251 5251 5251 5251 5251 5252 5252 5253 5254 5255 5256 5257 5258 5259 5259 5260 5262 5263 5265 5267 5268 5269 5270 5272 5274 5276 5276 5277 5279 5280 5282 5284 5286 5288 5290 5292 5294 5297 5300 5303 5307 5311 5316 5320 5325 5331 5337 5343 5348
5273 5271 5269 5267 5265 5263 5261 5259 5258 5256 5254 5252 5250 5249 5248 5248 5248 5249 5249 5249 5249 5250 5251 5252 5253 5254 5255 5256 5256 5258 5259 5261 5262 5264 5265 5266 5268 5270 5272 5272 5272 5273 5275 5277 5279 5281 5283 5285 5287 5288 5291 5293 5296 5299 5302 5306 5309 5313 5318 5323 5327 5333 5339
5273 5271 5269 5267 5265 5263 5261 5259 5257 5255 5253 5251 5249 5247 5246 5246 5246 5246 5247 5247 5247 5247 5248 5249 5250 5251 5252 5253 5254 5255 5256 5258 5259 5260 5261 5263 5265 5267 5268 5268 5269 5271 5272 5274 5276 5278 5280 5282 5284 5285 5288 5290 5292 5295 5298 5300 5303 5307 5311 5314 5317 5324 5330
5274 5271 5269 5267 5265 5263 5261 5259 5257 5255 5253 5251 5249 5246 5245 5245 5245 5245 5245 5245 5245 5245 5246 5246 5247 5248 5249 5250 5251 5252 5253 5255 5256 5257 5259 5261 5262 5263 5264 5265 5266 5268 5269 5271 5273 5274 5277 5279 5280 5282 5285 5287 5289 5291 5293 5295 5297 5300 5302 5305 5309 5315 5319
5275 5272 5269 5267 5265 5263 5261 5259 5257 5255 5253 5251 5249 5247 5246 5245 5244 5244 5244 5244 5244 5244 5244 5245 5245 5246 5247 5248 5249 5250 5251 5252 5253 5254 5256 5258 5259 5260 5261 5262 5263 5264 5266 5268 5269 5271 5273 5275 5277 5279 5281 5283 5285 5287 5288 5290 5291 5293 5295 5298 5301 5305 5309
5276 5273 5270 5267 5265 5263 5261 5259 5257 5255 5253 5252 5250 5248 5247 5246 5245 5244 5244 5244 5244 5244 5244 5244 5244 5245 5245 5246 5247 5248 5249 5249 5251 5252 5253 5255 5255 5256 5257 5258 5259 5261 5262 5264 5266 5268 5270 5271 5273 5274 5276 5278 5280 5282 5284 5285 5286 5287 5289 5291 5294 5297 5300
5276 5273 5270 5268 5265 5263 5261 5259 5257 5255 5253 5252 5250 5249 5248 5247 5246 5245 5245 5244 5244 5244 5244 5244 5244 5244 5244 5245 5245 5246 5247 5247 5248 5249 5250 5251 5252 5253 5253 5255 5256 5257 5259 5261 5262 5264 5265 5267 5268 5270 5271 5273 5275 5277 5278 5280 5281 5283 5284 5286 5287 5289 5292
5275 5273 5271 5268 5266 5263 5261 5259 5257 5255 5254 5252 5251 5250 5249 5248 5247 5246 5245 5245 5245 5244 5244 5244 5244 5244 5244 5244 5244 5244 5245 5245 5246 5246 5247 5248 5249 5250 5250 5251 5253 5254 5255 5257 5258 5260 5261 5262 5263 5265 5266 5268 5270 5272 5273 5275 5277 5278 5280 5281 5282 5283 5285
5275 5272 5270 5268 5266 5264 5262 5259 5257 5255 5254 5253 5251 5250 5249 5248 5247 5247 5246 5245 5245 5244 5244 5244 5243 5243 5243 5243 5243 5243 5243 5243 5243 5244 5244 5245 5245 5246 5247 5248 5249 5250 5251 5252 5253 5254 5256 5257 5259 5260 5261 5263 5264 5267 5268 5270 5272 5274 5275 5277 5278 5279 5280
5273 5271 5269 5267 5265 5263 5261 5260 5258 5256 5254 5253 5252 5250 5249 5249 5248 5247 5246 5245 5245 5244 5244 5243 5243 5242 5242 5242 5242 5242 5241 5242 5242 5242 5242 5243 5243 5244 5244 5245 5245 5246 5247 5248 5249 5250 5251 5253 5254 5255 5256 5258 5260 5262 5264 5265 5267 5269 5271 5272 5274 5275 5276
5272 5270 5268 5266 5264 5262 5260 5259 5257 5256 5254 5252 5251 5250 5249 5248 5248 5247 5246 5245 5245 5244 5243 5243 5242 5242 5241 5241 5241 5240 5240 5240 5240 5240 5240 5240 5241 5241 5242 5242 5243 5243 5244 5245 5245 5246 5248 5248 5249 5250 5252 5253 5255 5257 5259 5261 5262 5264 5266 5268 5269 5271 5273
5270 5267 5265 5263 5261 5260 5258 5257 5256 5254 5253 5252 5251 5249 5248 5248 5247 5246 5245 5245 5244 5243 5243 5242 5241 5241 5240 5240 5239 5239 5238 5238 5238 5238 5238 5238 5238 5239 5239 5240 5240 5241 5241 5241 5242 5243 5244 5245 5245 5247 5248 5249 5251 5252 5254 5256 5257 5259 5261 5263 5265 5266 5268
5266 5264 5262 5260 5258 5257 5255 5254 5253 5253 5252 5250 5249 5248 5247 5246 5246 5245 5244 5243 5243 5242 5242 5241 5240 5240 5239 5239 5238 5237 5237 5236 5236 5236 5235 5235 5236 5236 5236 5237 5237 5238 5238 5238 5239 5240 5241 5242 5243 5243 5244 5246 5247 5248 5249 5251 5253 5254 5256 5258 5260 5262 5264
5262 5260 5258 5257 5255 5253 5252 5251 5250 5250 5249 5248 5248 5247 5246 5245 5244 5243 5243 5242 5241 5241 5240 5240 5239 5239 5238 5237 5237 5236 5235 5235 5234 5234 5234 5234 5233 5234 5234 5234 5234 5235 5235 5235 5236 5237 5237 5238 5239 5240 5241 5242 5243 5244 5245 5246 5248 5249 5251 5253 5255 5257 5259
5259 5257 5255 5253 5252 5250 5249 5248 5247 5247 5247 5246 5246 5245 5244 5244 5243 5242 5241 5240 5240 5239 5239 5238 5238 5238 5237 5236 5235 5235 5234 5233 5233 5232 5232 5232 5232 5232 5232 5232 5232 5232 5233 5233 5233 5234 5234 5234 5235 5236 5237 5238 5239 5240 5241 5242 5243 5245 5247 5248 5250 5252 5254
5256 5254 5252 5251 5249 5248 5247 5246 5245 5244 5244 5244 5243 5243 5242 5242 5241 5240 5239 5239 5238 5238 5237 5237 5237 5237 5236 5235 5234 5233 5233 5232 5231 5231 5230 5230 5230 5230 5230 5230 5230 5230 5230 5230 5231 5231 5231 5231 5232 5232 5233 5234 5234 5235 5237 5238 5239 5241 5243 5244 5245 5247 5249
5253 5251 5250 5248 5247 5246 5245 5244 5243 5242 5242 5241 5241 5241 5240 5240 5239 5238 5238 5237 5237 5236 5236 5235 5235 5235 5234 5234 5233 5232 5231 5231 5230 5229 5229 5228 5228 5228 5228 5228 5227 5227 5227 5227 5228 5228 5228 5229 5229 5228 5229 5229 5230 5231 5232 5233 5235 5237 5238 5239 5241 5242 5244
5250 5249 5247 5246 5244 5243 5243 5242 5240 5240 5239 5239 5238 5238 5238 5238 5237 5237 5236 5235 5235 5235 5234 5234 5233 5233 5233 5232 5231 5231 5230 5229 5229 5228 5227 5227 5226 5226 5226 5226 5225 5225 5225 5225 5225 5225 5226 5226 5226 5225 5225 5225 5225 5226 5227 5229 5230 5232 5233 5235 5236 5238 5239